User: anonymous   Login
Location: Unspecified
(0.0000°N, 0.0000°E)
Time: 12:42:29
(UTC+00:00)
Language:

Kosmos-2180 - Orbit

View from above orbital plane
View from above orbital plane
View from above satellite
View from above satellite

Ground track
Ground track

The orbit data is extracted from the following two-line orbital elements,

1 21875U 92008A   21015.90981822  .00000040  00000-0  26248-4 0  9990
2 21875  82.9257 247.3407 0038906  77.5102 293.3477 13.73753175449197
Epoch (UTC): 15 January 2021 21:50:08
Eccentricity: 0.0038906
inclination: 82.9257°
perigee height: 957 km
apogee height: 1015 km
right ascension of ascending node: 247.3407°
argument of perigee: 77.5102°
revolutions per day: 13.73753175
mean anomaly at epoch: 293.3477°
orbit number at epoch: 44919

The dashed part of the orbit path shows where the satellite is in the earth's shadow,  

DLR